EDW42E LSZH-EKYT

Flight info

Callsign EDW42E
Flight time 1h 34m
Altitude 30000
Route DEGES Z1 ETAGO/N0413F220 Z1 NOTGA/N0424F240 N624 NIKUT T726 TOSTU/N0438F260 P605 OSBIT/N0425F240 P605 NORTA Z595 NIE N850 ELSOB/N0446F370 Y348 OMWEG M105 AMRAK P999 ALS P615 AAL
Aircraft A320/M-SDE3FGHIRWY/LB1

Departure

Time 2026-04-30 18:08
Airport Zürich Airport (LSZH)

Arrival

Time 2026-04-30 19:42
Airport Aalborg Airport (EKYT)
Time Latitude Longitude Altitude Speed Heading
2026-04-30 17:43 47.45352 8.55647 1397 ft 0 kts
2026-04-30 18:00 47.45294 8.55641 1406 ft 4 kts 343°
2026-04-30 18:01 47.45269 8.55675 1403 ft 4 kts 282°
2026-04-30 18:02 47.45266 8.55703 1400 ft 0 kts 276°
2026-04-30 18:04 47.45295 8.55510 1404 ft 15 kts 298°
2026-04-30 18:05 47.45545 8.54584 1394 ft 36 kts 288°
2026-04-30 18:06 47.45885 8.53854 1396 ft 18 kts 86°
2026-04-30 18:07 47.45632 8.57389 1957 ft 146 kts 97°
2026-04-30 18:08 47.45297 8.62192 3191 ft 185 kts 96°
2026-04-30 18:09 47.45860 8.71382 5241 ft 250 kts 81°
2026-04-30 18:10 47.46734 8.82172 8302 ft 276 kts 95°
2026-04-30 18:11 47.45054 8.93722 10841 ft 315 kts 101°
2026-04-30 18:11 47.43581 9.04081 12018 ft 358 kts 101°
2026-04-30 18:12 47.43644 9.14851 14053 ft 363 kts 63°
2026-04-30 18:13 47.47177 9.20083 15253 ft 370 kts 29°
2026-04-30 18:13 47.53291 9.24921 16933 ft 376 kts 29°
2026-04-30 18:14 47.58688 9.29210 18373 ft 381 kts 29°
2026-04-30 18:15 47.65757 9.34861 19975 ft 388 kts 29°
2026-04-30 18:15 47.72929 9.40602 21465 ft 394 kts 29°
2026-04-30 18:16 47.77803 9.44410 22414 ft 398 kts 24°
2026-04-30 18:16 47.83226 9.46259 23300 ft 407 kts
2026-04-30 18:17 47.86068 9.46271 23721 ft 409 kts
2026-04-30 18:17 47.88931 9.46256 24087 ft 411 kts
2026-04-30 18:17 47.94680 9.46239 24763 ft 415 kts
2026-04-30 18:18 47.97578 9.46235 25095 ft 417 kts
2026-04-30 18:18 48.00487 9.46231 25429 ft 419 kts
2026-04-30 18:18 48.03411 9.46227 25750 ft 421 kts
2026-04-30 18:18 48.06349 9.46221 26057 ft 423 kts
2026-04-30 18:19 48.09295 9.46215 26359 ft 425 kts
2026-04-30 18:19 48.12259 9.46207 26656 ft 427 kts
2026-04-30 18:19 48.15233 9.46199 26942 ft 428 kts
2026-04-30 18:19 48.18220 9.46190 27218 ft 430 kts
2026-04-30 18:20 48.21214 9.46190 27486 ft 432 kts
2026-04-30 18:20 48.24189 9.46197 27744 ft 433 kts
2026-04-30 18:20 48.27206 9.46204 27991 ft 435 kts
2026-04-30 18:20 48.30241 9.46211 28238 ft 436 kts
2026-04-30 18:21 48.33282 9.46218 28479 ft 438 kts
2026-04-30 18:21 48.36331 9.46221 28787 ft 437 kts
2026-04-30 18:21 48.39370 9.46220 29138 ft 436 kts
2026-04-30 18:21 48.42406 9.46216 29471 ft 435 kts
2026-04-30 18:22 48.45432 9.46215 29802 ft 435 kts
2026-04-30 18:22 48.51478 9.46219 30288 ft 434 kts
2026-04-30 18:22 48.54493 9.46222 30305 ft 434 kts
2026-04-30 18:23 48.60535 9.46169 30304 ft 434 kts
2026-04-30 18:23 48.66540 9.46090 30299 ft 434 kts
2026-04-30 18:24 48.75350 9.46532 30305 ft 430 kts 12°
2026-04-30 18:25 48.81182 9.47713 30303 ft 430 kts 11°
2026-04-30 18:25 48.90078 9.49504 30301 ft 430 kts 11°
2026-04-30 18:26 48.98863 9.51983 30315 ft 426 kts 19°
2026-04-30 18:27 49.07439 9.55586 30315 ft 426 kts 19°
2026-04-30 18:28 49.16014 9.59189 30314 ft 426 kts 19°
2026-04-30 18:28 49.24586 9.62808 30319 ft 426 kts 19°
2026-04-30 18:29 49.36007 9.67709 30343 ft 425 kts 21°
2026-04-30 18:30 49.47084 9.73715 30349 ft 423 kts 23°
2026-04-30 18:31 49.55412 9.78244 30351 ft 423 kts 22°
2026-04-30 18:32 49.61086 9.80696 30352 ft 428 kts 11°
2026-04-30 18:32 49.64076 9.80944 30351 ft 433 kts
2026-04-30 18:33 49.73125 9.80501 30352 ft 434 kts
2026-04-30 18:33 49.82177 9.79933 30356 ft 434 kts
2026-04-30 18:34 49.91242 9.79312 30360 ft 435 kts
2026-04-30 18:35 49.97280 9.78924 30360 ft 435 kts
2026-04-30 18:35 50.02306 9.78610 30361 ft 435 kts
2026-04-30 18:36 50.12361 9.77873 30366 ft 436 kts
2026-04-30 18:37 50.20458 9.76985 30369 ft 436 kts
2026-04-30 18:37 50.26516 9.76337 30379 ft 436 kts
2026-04-30 18:38 50.32570 9.75724 30373 ft 436 kts
2026-04-30 18:38 50.38634 9.75124 30379 ft 437 kts
2026-04-30 18:39 50.44696 9.74519 30381 ft 437 kts
2026-04-30 18:39 50.50725 9.73909 30385 ft 437 kts
2026-04-30 18:40 50.56790 9.73289 30389 ft 437 kts
2026-04-30 18:40 50.62866 9.72670 30393 ft 437 kts 360°
2026-04-30 18:41 50.68941 9.72050 30394 ft 438 kts 360°
2026-04-30 18:41 50.75054 9.71424 30397 ft 438 kts 360°
2026-04-30 18:42 50.81096 9.70790 30396 ft 438 kts 359°
2026-04-30 18:42 50.90219 9.69910 30398 ft 437 kts
2026-04-30 18:45 51.23641 9.69609 30405 ft 435 kts
2026-04-30 18:46 51.29664 9.70590 30405 ft 435 kts
2026-04-30 18:46 51.35692 9.71578 30405 ft 435 kts
2026-04-30 18:47 51.41714 9.72553 30410 ft 435 kts
2026-04-30 18:47 51.47739 9.73529 30410 ft 435 kts
2026-04-30 18:48 51.53752 9.74616 30411 ft 435 kts
2026-04-30 18:48 51.59757 9.75791 30416 ft 435 kts
2026-04-30 18:49 51.65763 9.76959 30420 ft 435 kts
2026-04-30 18:49 51.71776 9.78104 30418 ft 435 kts
2026-04-30 18:50 51.77782 9.79249 30428 ft 435 kts
2026-04-30 18:50 51.83801 9.80327 30425 ft 436 kts
2026-04-30 18:51 51.89828 9.79229 30433 ft 441 kts 346°
2026-04-30 18:51 51.95604 9.75985 30426 ft 442 kts 343°
2026-04-30 18:52 52.01447 9.72663 30425 ft 442 kts 343°
2026-04-30 18:52 52.07215 9.69379 30418 ft 442 kts 343°
2026-04-30 18:53 52.13014 9.66039 30431 ft 442 kts 343°
2026-04-30 18:53 52.18821 9.62687 30414 ft 442 kts 343°
2026-04-30 18:54 52.24621 9.59344 30431 ft 442 kts 343°
2026-04-30 18:54 52.30421 9.56000 30419 ft 442 kts 342°
2026-04-30 18:55 52.36220 9.52646 30421 ft 442 kts 342°
2026-04-30 18:55 52.44919 9.47573 30423 ft 442 kts 342°
2026-04-30 18:56 52.53611 9.42487 30426 ft 442 kts 342°
2026-04-30 18:57 52.62418 9.38153 30412 ft 439 kts 355°
2026-04-30 18:57 52.68481 9.38456 30408 ft 437 kts
2026-04-30 18:58 52.77500 9.40373 30408 ft 437 kts
2026-04-30 18:59 52.86559 9.42299 30409 ft 437 kts
2026-04-30 19:00 52.98641 9.44875 30412 ft 437 kts
2026-04-30 19:01 53.10721 9.47455 30422 ft 437 kts
2026-04-30 19:02 53.19772 9.49387 30419 ft 437 kts
2026-04-30 19:03 53.31834 9.51986 30426 ft 437 kts
2026-04-30 19:04 53.43833 9.54560 30430 ft 437 kts
2026-04-30 19:05 53.55861 9.57031 30435 ft 437 kts
2026-04-30 19:06 53.67990 9.58308 30432 ft 437 kts
2026-04-30 19:06 53.77070 9.59573 30437 ft 436 kts
2026-04-30 19:07 53.86141 9.60934 30436 ft 436 kts
2026-04-30 19:08 53.98231 9.62647 30438 ft 436 kts
2026-04-30 19:09 54.07257 9.63960 30435 ft 436 kts
2026-04-30 19:09 54.13298 9.64843 30435 ft 436 kts
2026-04-30 19:10 54.25376 9.66608 30433 ft 435 kts
2026-04-30 19:11 54.34427 9.67930 30435 ft 435 kts
2026-04-30 19:12 54.40461 9.68807 30436 ft 435 kts
2026-04-30 19:12 54.46498 9.69684 30433 ft 435 kts
2026-04-30 19:13 54.58559 9.71480 30437 ft 435 kts
2026-04-30 19:14 54.64587 9.72373 30438 ft 435 kts
2026-04-30 19:14 54.70611 9.73276 30447 ft 435 kts
2026-04-30 19:15 54.76601 9.74566 30454 ft 435 kts 14°
2026-04-30 19:15 54.82071 9.79000 30456 ft 438 kts 34°
2026-04-30 19:15 54.84386 9.82448 30457 ft 440 kts 44°
2026-04-30 19:16 54.88215 9.90770 30454 ft 440 kts 43°
2026-04-30 19:16 54.93130 9.96745 30454 ft 434 kts 22°
2026-04-30 19:17 54.95979 9.98452 30454 ft 433 kts 12°
2026-04-30 19:17 55.04948 9.99740 30451 ft 432 kts
2026-04-30 19:18 55.13950 10.00608 30447 ft 432 kts
2026-04-30 19:19 55.19951 10.01160 30449 ft 432 kts
2026-04-30 19:19 55.28960 10.01967 30453 ft 432 kts
2026-04-30 19:20 55.34961 10.02502 30460 ft 432 kts
2026-04-30 19:21 55.43969 10.03324 30457 ft 432 kts
2026-04-30 19:22 55.55963 10.04421 30457 ft 432 kts
2026-04-30 19:23 55.73957 10.06075 30456 ft 431 kts
2026-04-30 19:24 55.78943 10.06546 30236 ft 432 kts
2026-04-30 19:24 55.81944 10.06828 29943 ft 432 kts
2026-04-30 19:24 55.87960 10.07391 28538 ft 435 kts
2026-04-30 19:25 55.97112 10.08243 25354 ft 437 kts
2026-04-30 19:26 56.03079 10.08793 23810 ft 429 kts
2026-04-30 19:26 56.08970 10.09340 22325 ft 419 kts
2026-04-30 19:26 56.11863 10.09612 21648 ft 414 kts
2026-04-30 19:27 56.17563 10.10160 20338 ft 407 kts
2026-04-30 19:27 56.23171 10.10701 19098 ft 401 kts
2026-04-30 19:28 56.25944 10.10968 18463 ft 398 kts
2026-04-30 19:28 56.31427 10.11498 17330 ft 390 kts
2026-04-30 19:29 56.36787 10.12003 16292 ft 382 kts
2026-04-30 19:29 56.39430 10.12248 15779 ft 378 kts
2026-04-30 19:30 56.47222 10.13003 14202 ft 370 kts
2026-04-30 19:30 56.52380 10.13500 12610 ft 376 kts
2026-04-30 19:31 56.57568 10.14002 11381 ft 370 kts
2026-04-30 19:31 56.60117 10.14247 11037 ft 360 kts
2026-04-30 19:31 56.64897 10.14712 10789 ft 329 kts
2026-04-30 19:32 56.67134 10.14929 10673 ft 316 kts
2026-04-30 19:32 56.69282 10.15136 10551 ft 304 kts
2026-04-30 19:32 56.71357 10.15337 10363 ft 295 kts
2026-04-30 19:32 56.73388 10.15538 10249 ft 291 kts
2026-04-30 19:33 56.75405 10.15739 10163 ft 290 kts
2026-04-30 19:33 56.77389 10.15933 9864 ft 289 kts
2026-04-30 19:33 56.79414 10.16125 9458 ft 287 kts
2026-04-30 19:33 56.81402 10.16317 9072 ft 285 kts
2026-04-30 19:34 56.83377 10.16514 8676 ft 284 kts
2026-04-30 19:34 56.85343 10.16708 8286 ft 282 kts
2026-04-30 19:34 56.89212 10.17087 7513 ft 279 kts
2026-04-30 19:35 56.91147 10.17276 7126 ft 278 kts
2026-04-30 19:35 56.93072 10.17464 6741 ft 276 kts
2026-04-30 19:35 56.94980 10.17650 6332 ft 274 kts
2026-04-30 19:35 56.96877 10.17837 6007 ft 268 kts
2026-04-30 19:36 56.98664 10.18015 5880 ft 246 kts
2026-04-30 19:36 57.00307 10.18181 5754 ft 227 kts
2026-04-30 19:36 57.03233 10.18428 5554 ft 195 kts 356°
2026-04-30 19:37 57.04482 10.17775 5419 ft 183 kts 329°
2026-04-30 19:37 57.05446 10.16268 5104 ft 183 kts 308°
2026-04-30 19:37 57.06229 10.14404 4752 ft 185 kts 306°
2026-04-30 19:37 57.06986 10.12489 4417 ft 184 kts 304°
2026-04-30 19:38 57.07696 10.10590 4058 ft 177 kts 302°
2026-04-30 19:38 57.08317 10.08720 3760 ft 164 kts 297°
2026-04-30 19:38 57.08818 10.06873 3319 ft 159 kts 292°
2026-04-30 19:38 57.09196 10.05000 2889 ft 154 kts 289°
2026-04-30 19:39 57.09553 10.03169 2478 ft 150 kts 289°
2026-04-30 19:39 57.09894 10.01392 2087 ft 145 kts 289°
2026-04-30 19:39 57.10115 9.99618 1707 ft 139 kts 277°
2026-04-30 19:39 57.10194 9.97885 1359 ft 134 kts 272°
2026-04-30 19:40 57.10170 9.96207 1076 ft 130 kts 265°
2026-04-30 19:40 57.10086 9.94554 822 ft 130 kts 263°
2026-04-30 19:40 57.09982 9.92900 601 ft 130 kts 263°
2026-04-30 19:40 57.09883 9.91253 409 ft 128 kts 263°
2026-04-30 19:41 57.09778 9.89616 251 ft 129 kts 262°
2026-04-30 19:41 57.09671 9.87993 112 ft 128 kts 262°
2026-04-30 19:41 57.09568 9.86419 21 ft 112 kts 263°
2026-04-30 19:41 57.09499 9.85314 16 ft 62 kts 263°
2026-04-30 19:42 57.09463 9.84766 19 ft 35 kts 262°
2026-04-30 19:42 57.09439 9.84402 19 ft 17 kts 263°
2026-04-30 19:42 57.09433 9.84289 18 ft 2 kts 266°
2026-04-30 19:42 57.09423 9.84151 16 ft 18 kts 262°
2026-04-30 19:43 57.09406 9.83909 16 ft 20 kts 263°
2026-04-30 19:43 57.09388 9.83643 15 ft 22 kts 263°
2026-04-30 19:43 57.09361 9.83417 17 ft 15 kts 224°
2026-04-30 19:44 57.09205 9.83590 18 ft 13 kts 120°
2026-04-30 19:44 57.09203 9.83746 18 ft 12 kts 84°
2026-04-30 19:44 57.09213 9.83914 19 ft 15 kts 83°
2026-04-30 19:44 57.09227 9.84129 18 ft 19 kts 83°
2026-04-30 19:45 57.09245 9.84390 15 ft 22 kts 84°
2026-04-30 19:45 57.09265 9.84690 16 ft 25 kts 83°
2026-04-30 19:45 57.09285 9.85022 17 ft 27 kts 83°
2026-04-30 19:45 57.09308 9.85375 17 ft 28 kts 84°
2026-04-30 19:46 57.09330 9.85724 19 ft 25 kts 83°
2026-04-30 19:46 57.09318 9.85930 18 ft 16 kts 136°
2026-04-30 19:46 57.09215 9.86072 18 ft 20 kts 143°
2026-04-30 19:46 57.09099 9.86232 18 ft 22 kts 140°
2026-04-30 19:47 57.08976 9.86411 18 ft 23 kts 142°
2026-04-30 19:47 57.08887 9.86538 18 ft 24 kts 142°
2026-04-30 19:47 57.08732 9.86764 18 ft 16 kts 141°
2026-04-30 19:47 57.08654 9.86887 18 ft 12 kts 139°
2026-04-30 19:48 57.08637 9.86952 18 ft 4 kts 54°
2026-04-30 19:48 57.08654 9.86977 18 ft 3 kts 45°
2026-04-30 19:48 57.08662 9.86997 18 ft 0 kts 57°
2026-04-30 19:48 57.08667 9.87012 18 ft 1 kts 59°
2026-04-30 19:49 57.08670 9.87023 18 ft 0 kts 60°